Regional Weather Roundup
Issued by NWS

Home | Current Version | Previous Version | Text Only | Print | Product List | Glossary Off
Versions: 1 2 3 4 5 6 7 8 9 10 11 12 13 14 15 16 17 18 19 20 21 22 23 24 25 26 27 28 29 30 31 32 33 34 35 36 37 38 39 40 41 42 43 44 45 46 47 48 49 50

544
ASUS43 KTOP 171308
RWRKS

WEATHER ROUNDUP FOR KANSAS
NATIONAL WEATHER SERVICE GOODLAND KS
700 AM CST TUE JAN 17 2017

NOTE:  "FAIR" INDICATES FEW OR NO CLOUDS BELOW 12,000 FEET WITH NO
SIGNIFICANT WEATHER AND/OR OBSTRUCTIONS TO VISIBILITY.

KSZ001>006-013>018-027>032-041>047-171400-
NORTHWEST KANSAS

CITY           SKY/WX    TMP DP  RH WIND       PRES   REMARKS
GOODLAND       CLEAR     23  19  85 W8        30.08S
HAYS           PTCLDY    32  27  81 NW8       30.10R
HILL CITY      PTCLDY    30  25  81 NW7       30.10R
RUSSELL        MOCLDY    31  27  85 NW10      30.08R WCI  22
$$

KSZ061>065-074>080-084>089-171400-
SOUTHWEST KANSAS

CITY           SKY/WX    TMP DP  RH WIND       PRES   REMARKS
DODGE CITY     CLOUDY    33  30  88 NW9       30.11S
ELKHART          N/A     32  24  72 NW7         N/A
GARDEN CITY    CLOUDY    33  30  88 W5        30.11S
GREAT BEND     CLOUDY    33  29  85 NW8       30.11R
LIBERAL        CLOUDY    36  28  75 NW8       30.13R
PRATT          CLOUDY    30  28  91 W6        30.11S
$$

KSZ066>073-081>083-090>101-171400-
SOUTHEAST KANSAS

CITY           SKY/WX    TMP DP  RH WIND       PRES   REMARKS
CHANUTE        CLOUDY    36  34  92 W7        30.10R FOG
HUTCHINSON     PTCLDY    31  29  92 NW3       30.11R
MEDICINE LODGE   N/A     28  27  96 W5        30.12S
NEWTON         CLOUDY    33  32  96 W7        30.11R
PARSONS        CLOUDY    37  35  92 NW7       30.12R
WICHITA INTL   MOCLDY    34  32  92 NW7       30.11R
WICHITA JABRA  CLOUDY    34  32  92 NW8       30.10R
WICHITA MCCONL CLOUDY    35  32  87 NW9       30.10R
WINFIELD       CLOUDY    36  32  85 NW12      30.12S WCI  28
$$

KSZ007>012-019>026-033>040-048>060-102>105-171400-
NORTHEAST KANSAS

CITY           SKY/WX    TMP DP  RH WIND       PRES   REMARKS
CONCORDIA      PTCLDY    29  26  89 NW8       30.08R
EMPORIA        CLOUDY    33  32  96 NW7       30.08R
LAWRENCE       CLOUDY    34  34 100 W7        30.06S
MANHATTAN      CLOUDY    34  31  88 W5        30.07S
MARYSVILLE     CLOUDY    32  30  93 NW10      30.07R WCI  24
OLATHE IND     CLOUDY    34  33  96 NW10      30.05S FOG     WCI  26
OLATHE EXE     CLOUDY    33  33 100 NW8       30.04R FOG
SALINA         CLEAR     32  28  85 NW7       30.10
TOPEKA BILLARD CLOUDY    35  31  85 W5        30.06R
TOPEKA FORBES  CLOUDY    35  32  88 NW9       30.05S
$$




USA.gov is the U.S. government's official web portal to all federal, state and local government web resources and services.